Location: Newark
(44.3681°N, 100.3364°W)
Time: 16:19:10
(UTC+00:00)

Vanguard 1 Rocket - All Passes

Search period start: 19 February 2020 00:00
Search period end: 29 February 2020 00:00
Orbit: 650 x 4226 km, 34.3° (Epoch: 18 February)

Date Brightness Start Highest point End Pass type
(mag) Time Alt. Az. Time Alt. Az. Time Alt. Az.
19 Feb - 08:58:23 10° SSW 09:02:33 16° SSE 09:05:48 10° SE night (unlit)
19 Feb - 11:22:51 10° SW 11:26:58 24° S 11:30:33 10° ESE visible
19 Feb - 13:47:58 10° WSW 13:51:01 18° SSW 13:54:28 10° SSE daylight
20 Feb - 07:47:54 10° S 07:51:27 13° SSE 07:54:22 10° SE night (unlit)
20 Feb - 10:11:31 10° SW 10:16:20 24° S 10:20:02 10° ESE visible
20 Feb - 12:36:53 10° WSW 12:40:26 22° S 12:43:58 10° SE visible
21 Feb - 08:59:57 10° SW 09:05:31 22° S 09:09:32 10° ESE night (unlit)
21 Feb - 11:25:36 10° WSW 11:29:54 25° S 11:33:34 10° SE visible
21 Feb - 13:51:35 10° SW 13:53:55 14° SSW 13:56:25 10° SSE daylight
22 Feb - 07:48:23 10° SSW 07:54:27 19° SSE 07:58:46 10° ESE night (unlit)
22 Feb - 10:13:56 10° SW 10:19:17 27° S 10:23:15 10° ESE visible
22 Feb - 12:40:02 10° WSW 12:43:20 19° SSW 12:46:33 10° SSE visible
23 Feb - 06:37:18 10° S 06:43:03 15° SSE 06:47:22 10° SE night (unlit)
23 Feb - 09:01:54 10° SW 09:08:30 27° S 09:12:57 10° ESE visible
23 Feb - 11:28:26 10° WSW 11:32:49 25° S 11:36:29 10° SE visible
24 Feb - 05:28:09 10° SSE 05:31:17 11° SSE 05:34:01 10° SE night (unlit)
24 Feb - 07:49:39 10° SW 07:57:26 25° SSE 08:02:30 10° ESE night (unlit)
24 Feb - 10:16:29 10° WSW 10:22:14 30° S 10:26:21 10° ESE visible
24 Feb - 12:43:22 10° WSW 12:46:11 16° SSW 12:48:53 10° SSE visible
25 Feb - 06:37:33 10° SSW 06:46:01 21° SSE 06:51:40 10° ESE night (unlit)
25 Feb - 09:04:05 10° SW 09:11:27 32° S 09:16:12 10° ESE visible
25 Feb - 11:31:22 10° WSW 11:35:43 23° SSW 11:39:16 10° SE visible
26 Feb - 05:26:08 10° S 05:34:14 17° SSE 05:40:04 10° ESE visible
26 Feb - 07:51:19 10° SW 08:00:24 31° S 08:05:56 10° ESE night (unlit)
26 Feb - 10:19:06 10° WSW 10:25:10 31° S 10:29:23 10° SE visible
26 Feb - 12:47:07 10° SW 12:48:58 12° SSW 12:50:46 10° S visible
27 Feb - 04:16:48 10° S 04:22:04 12° SSE 04:26:27 10° SE visible
27 Feb - 06:38:29 10° SW 06:48:58 27° SSE 06:55:23 10° ESE night (unlit)
27 Feb - 09:06:24 10° WSW 09:14:24 35° S 09:19:22 10° ESE visible
27 Feb - 11:34:23 10° WSW 11:38:32 21° SSW 11:41:56 10° SSE visible
28 Feb - 05:26:01 10° SSW 05:37:08 23° SSE 05:44:20 10° ESE visible
28 Feb - 07:53:13 10° SW 08:03:21 36° S 08:09:13 10° ESE night (unlit)
28 Feb - 10:21:49 10° WSW 10:28:02 30° SSW 10:32:20 10° SE visible
